CW4141 Weather Reports


Display with metric or nautical units.
time (UTC)temp
F
wind
direction
speed
MPH
gust
MPH
rain 1hr
in
rain 24hr
in
rain mn
in
humidity
%
barometer
mb
20260508224553 88 130 0.0 4.0 0.00 0.00 0.00 39 1016.3
20260508224535 88 175 0.0 4.0 0.00 0.00 0.00 39 1010.1
20260508223056 89 0 0.0 6.0 0.00 0.00 0.00 38 1016.3
20260508223037 89 181 0.0 6.0 0.00 0.00 0.00 38 1010.3
20260508221553 89 0 0.0 5.0 0.00 0.00 0.00 37 1016.5
20260508221534 89 163 0.0 5.0 0.00 0.00 0.00 38 1010.6
20260508220056 90 0 0.0 7.0 0.00 0.00 0.00 36 1016.6
20260508220029 90 209 0.0 6.0 0.00 0.00 0.00 37 1010.7
20260508214550 90 0 0.0 4.0 0.00 0.00 0.00 35 1016.8
20260508214529 90 225 0.0 5.0 0.00 0.00 0.00 36 1010.8
20260508213052 90 0 0.0 5.0 0.00 0.00 0.00 34 1016.9
20260508213028 90 200 0.0 3.0 0.00 0.00 0.00 35 1011.0
20260508211553 90 0 0.0 5.0 0.00 0.00 0.00 36 1017.0
20260508211526 90 193 0.0 5.0 0.00 0.00 0.00 36 1011.2
20260508210054 90 0 0.0 4.0 0.00 0.00 0.00 35 1017.2
20260508210025 90 216 0.0 4.0 0.00 0.00 0.00 36 1011.2
20260508204551 89 0 0.0 1.0 0.00 0.00 0.00 35 1017.3
20260508204524 89 159 0.0 1.0 0.00 0.00 0.00 35 1011.3
20260508203057 88 0 0.0 0.0 0.00 0.00 0.00 35 1017.5
20260508203020 88 159 0.0 0.0 0.00 0.00 0.00 36 1011.7
20260508201550 87 0 0.0 2.0 0.00 0.00 0.00 40 1017.6
20260508201522 86 158 0.0 1.0 0.00 0.00 0.00 41 1011.7
20260508200056 86 0 0.0 6.0 0.00 0.00 0.00 39 1017.7
20260508200019 86 157 0.0 5.0 0.00 0.00 0.00 39 1012.0
20260508194554 85 0 0.0 2.0 0.00 0.00 0.00 41 1018.0
20260508194510 85 157 0.0 2.0 0.00 0.00 0.00 43 1012.2
20260508193054 84 0 0.0 1.0 0.00 0.00 0.00 45 1018.1
20260508193014 84 179 0.0 1.0 0.00 0.00 0.00 45 1012.3
20260508191556 83 0 0.0 0.0 0.00 0.00 0.00 46 1018.3
20260508191501 83 167 0.0 0.0 0.00 0.00 0.00 48 1012.7
20260508190058 81 166 0.0 1.0 0.00 0.00 0.00 46 1012.8
20260508184558 80 0 0.0 4.0 0.00 0.00 0.00 49 1018.4
20260508184554 80 167 0.0 1.0 0.00 0.00 0.00 50 1012.8
20260508183058 79 0 0.0 1.0 0.00 0.00 0.00 51 1018.7
20260508183050 79 61 0.0 0.0 0.00 0.00 0.00 52 1012.9
20260508181610 78 46 0.0 0.0 0.00 0.00 0.00 57 1013.1
20260508181558 78 0 0.0 1.0 0.00 0.00 0.00 56 1018.8
20260508180056 76 0 0.0 1.0 0.00 0.00 0.00 59 1019.0
20260508180052 76 82 0.0 1.0 0.00 0.00 0.00 59 1013.3
20260508174557 74 0 0.0 0.0 0.00 0.00 0.00 63 1019.1
20260508174543 74 81 0.0 0.0 0.00 0.00 0.00 63 1013.3
20260508173051 72 0 0.0 0.0 0.00 0.00 0.00 66 1019.1
20260508173040 72 81 0.0 0.0 0.00 0.00 0.00 66 1013.4
20260508171556 70 0 0.0 1.0 0.00 0.00 0.00 70 1019.2
20260508171533 70 81 0.0 1.0 0.00 0.00 0.00 70 1013.4
20260508170059 67 0 0.0 0.0 0.00 0.00 0.00 77 1019.3
20260508170024 67 78 0.0 0.0 0.00 0.00 0.00 79 1013.5
20260508164551 65 0 0.0 0.0 0.00 0.00 0.00 87 1019.4
20260508164520 65 78 0.0 0.0 0.00 0.00 0.00 87 1013.6
20260508163051 62 0 0.0 0.0 0.00 0.00 0.00 93 1019.3
20260508163020 62 78 0.0 0.0 0.00 0.00 0.00 93 1013.6
20260508161553 60 0 0.0 0.0 0.00 0.00 0.00 94 1019.5
20260508161521 60 78 0.0 0.0 0.00 0.00 0.00 94 1013.9
20260508160056 59 0 0.0 0.0 0.00 0.00 0.00 93 1019.4
20260508160007 59 78 0.0 0.0 0.00 0.00 0.00 94 1013.9
20260508154600 58 0 0.0 0.0 0.00 0.00 0.00 93 1019.5
20260508154503 58 78 0.0 0.0 0.00 0.00 0.00 94 1014.0
20260508153057 57 0 0.0 0.0 0.00 0.00 0.00 93 1019.7
20260508153002 57 78 0.0 0.0 0.00 0.00 0.00 94 1014.0
20260508151608 57 78 0.0 1.0 0.00 0.00 0.00 94 1014.0
20260508151556 57 0 0.0 1.0 0.00 0.00 0.00 93 1019.7
20260508150059 57 0 0.0 1.0 0.00 0.00 0.00 93 1019.7
20260508150056 57 78 0.0 1.0 0.00 0.00 0.00 94 1014.1
20260508144557 56 0 0.0 1.0 0.00 0.00 0.00 93 1019.7
20260508144554 56 71 0.0 1.0 0.00 0.00 0.00 94 1014.1
20260508143109 56 0 0.0 0.0 0.00 0.00 0.00 93 1019.7
20260508143054 56 163 0.0 0.0 0.00 0.00 0.00 94 1014.0
20260508141554 56 0 0.0 1.0 0.00 0.00 0.00 93 1019.8
20260508141550 56 163 0.0 1.0 0.00 0.00 0.00 93 1014.1
20260508140056 56 0 0.0 1.0 0.00 0.00 0.00 93 1019.7
20260508140048 56 163 0.0 1.0 0.00 0.00 0.00 93 1014.0
20260508134558 56 163 0.0 4.0 0.00 0.00 0.00 93 1019.7
20260508134549 56 163 0.0 2.0 0.00 0.00 0.00 93 1014.0
20260508133058 56 163 0.0 0.0 0.00 0.00 0.00 93 1013.7
20260508133055 56 0 0.0 0.0 0.00 0.00 0.00 93 1019.6
20260508131558 56 0 0.0 1.0 0.00 0.00 0.00 93 1019.3
20260508131546 56 163 0.0 1.0 0.00 0.00 0.00 93 1013.6
20260508130108 56 0 0.0 4.0 0.00 0.00 0.00 92 1019.2
20260508130041 56 163 0.0 2.0 0.00 0.00 0.00 93 1013.5
20260508124554 56 0 0.0 2.0 0.00 0.00 0.00 92 1018.9
20260508124541 56 163 0.0 2.0 0.00 0.00 0.00 93 1013.4
20260508123054 56 0 0.0 1.0 0.00 0.00 0.00 92 1018.9
20260508123052 56 163 0.0 1.0 0.00 0.00 0.00 93 1013.4
20260508121557 56 0 0.0 2.0 0.00 0.00 0.00 92 1019.1
20260508121549 56 163 0.0 2.0 0.00 0.00 0.00 93 1013.3
20260508120057 56 0 0.0 1.0 0.00 0.00 0.00 92 1019.0
20260508120039 56 163 0.0 1.0 0.00 0.00 0.00 93 1013.2
20260508114551 56 0 0.0 2.0 0.00 0.00 0.00 92 1018.8
20260508114538 56 163 0.0 2.0 0.00 0.00 0.00 93 1013.1
20260508113110 56 0 0.0 2.0 0.00 0.00 0.00 92 1018.9
20260508113039 56 163 0.0 2.0 0.00 0.00 0.00 93 1013.0
20260508111550 56 0 0.0 2.0 0.00 0.00 0.00 92 1018.9
20260508111537 56 163 0.0 1.0 0.00 0.00 0.00 92 1013.1
20260508110053 56 0 0.0 2.0 0.00 0.00 0.00 92 1018.8
20260508110043 56 163 0.0 2.0 0.00 0.00 0.00 92 1013.0
20260508104619 56 163 0.0 2.0 0.00 0.00 0.00 92 1018.9
20260508104535 56 163 0.0 2.0 0.00 0.00 0.00 92 1013.1
20260508103054 56 163 0.0 2.0 0.00 0.00 0.00 92 1018.9
20260508103034 56 163 0.0 2.0 0.00 0.00 0.00 92 1013.3
20260508101554 56 0 0.0 1.0 0.00 0.00 0.00 91 1019.1
20260508101533 56 163 0.0 1.0 0.00 0.00 0.00 92 1013.4
20260508100051 56 0 0.0 1.0 0.00 0.00 0.00 91 1019.1
20260508100032 56 163 0.0 1.0 0.00 0.00 0.00 92 1013.4
20260508094550 56 163 0.0 1.0 0.00 0.00 0.00 91 1019.0
20260508094531 56 163 0.0 1.0 0.00 0.00 0.00 92 1013.3
20260508093052 56 0 0.0 1.0 0.00 0.00 0.00 91 1019.0
20260508093030 56 163 0.0 1.0 0.00 0.00 0.00 92 1013.3
20260508091553 56 0 0.0 2.0 0.00 0.00 0.00 91 1019.1
20260508091529 56 163 0.0 1.0 0.00 0.00 0.00 92 1013.3
20260508090105 57 0 0.0 2.0 0.00 0.00 0.00 91 1019.2
20260508090032 57 163 0.0 1.0 0.00 0.00 0.00 92 1013.4
20260508084550 56 0 0.0 1.0 0.00 0.00 0.00 91 1019.2
20260508084527 56 163 0.0 1.0 0.00 0.00 0.00 91 1013.6
20260508083106 56 0 0.0 4.0 0.00 0.00 0.00 91 1019.2
20260508083026 56 163 0.0 3.0 0.00 0.00 0.00 91 1013.6
20260508081558 56 0 0.0 2.0 0.00 0.00 0.00 91 1019.5
20260508081531 56 163 0.0 2.0 0.00 0.00 0.00 91 1013.9
20260508080047 56 0 0.0 5.0 0.00 0.00 0.00 90 1019.8
20260508080030 56 163 0.0 4.0 0.00 0.00 0.00 91 1014.1
20260508074552 56 163 0.0 4.0 0.00 0.00 0.00 90 1019.9
20260508074525 56 163 0.0 3.0 0.00 0.00 0.00 90 1014.1
20260508073058 56 163 1.0 4.0 0.00 0.00 0.00 89 1019.9
20260508073024 56 163 1.0 3.0 0.00 0.00 0.00 90 1014.1
20260508071600 56 163 0.0 5.0 0.00 0.00 0.00 88 1019.8
20260508071527 56 163 0.0 4.0 0.00 0.00 0.00 89 1014.1
20260508070138 57 0 0.0 4.0 0.00 0.00 0.00 87 1019.8
20260508070020 57 163 0.0 3.0 0.00 0.00 0.00 87 1014.1
20260508064607 57 163 0.0 4.0 0.00 0.00 0.00 85 1019.7
20260508064521 57 163 0.0 3.0 0.00 0.00 0.00 86 1014.1
20260508063053 58 0 0.0 4.0 0.00 0.00 0.00 85 1019.8
20260508063020 58 163 0.0 2.0 0.00 0.00 0.00 85 1014.1
20260508061555 58 0 1.0 5.0 0.00 0.00 0.00 84 1019.8
20260508061523 58 163 1.0 3.0 0.00 0.00 0.00 85 1014.1
20260508060051 59 0 0.0 4.0 0.00 0.00 0.00 83 1019.7
20260508060018 59 163 0.0 3.0 0.00 0.00 0.00 84 1013.9
20260508054553 59 0 0.0 4.0 0.00 0.00 0.00 82 1019.7
20260508054521 59 163 0.0 3.0 0.00 0.00 0.00 83 1014.0
20260508053102 60 0 0.0 2.0 0.00 0.00 0.00 81 1019.7
20260508053017 60 163 0.0 2.0 0.00 0.00 0.00 81 1014.0
20260508051554 61 163 0.0 4.0 0.00 0.00 0.00 80 1019.6
20260508051525 61 163 0.0 3.0 0.00 0.00 0.00 80 1013.9
20260508050055 61 163 0.0 2.0 0.00 0.00 0.00 78 1019.5
20260508050016 61 163 0.0 2.0 0.00 0.00 0.00 79 1013.7
20260508044551 62 0 0.0 2.0 0.00 0.00 0.00 77 1019.4
20260508044516 62 163 0.0 3.0 0.00 0.00 0.00 78 1013.5
20260508043101 62 163 0.0 4.0 0.00 0.00 0.00 76 1019.2
20260508043017 62 163 0.0 3.0 0.00 0.00 0.00 77 1013.4
20260508041554 63 163 0.0 4.0 0.00 0.00 0.00 75 1019.0
20260508041515 63 163 0.0 2.0 0.00 0.00 0.00 76 1013.0
20260508040057 63 0 0.0 2.0 0.00 0.00 0.00 75 1018.7
20260508040015 63 163 0.0 2.0 0.00 0.00 0.00 75 1012.7
20260508034559 64 0 0.0 2.0 0.00 0.00 0.00 73 1018.5
20260508034513 64 163 0.0 2.0 0.00 0.00 0.00 73 1012.5
20260508033058 65 0 0.0 2.0 0.00 0.00 0.00 71 1018.3
20260508033013 65 163 0.0 2.0 0.00 0.00 0.00 71 1012.4
20260508031554 66 0 0.0 2.0 0.00 0.00 0.00 69 1018.2
20260508031512 66 163 0.0 2.0 0.00 0.00 0.00 70 1012.4
20260508030056 67 0 0.0 5.0 0.00 0.00 0.00 68 1018.1
20260508030012 67 163 0.0 3.0 0.00 0.00 0.00 68 1012.1
20260508024557 68 163 0.0 2.0 0.00 0.00 0.00 66 1018.0
20260508024512 68 163 0.0 2.0 0.00 0.00 0.00 66 1012.0
20260508023051 69 0 0.0 5.0 0.00 0.00 0.00 65 1017.8
20260508023014 69 160 0.0 3.0 0.00 0.00 0.00 65 1011.8
20260508021550 69 0 0.0 7.0 0.00 0.00 0.00 63 1017.5
20260508021510 69 168 0.0 7.0 0.00 0.00 0.00 63 1011.8
20260508020051 70 0 0.0 5.0 0.00 0.00 0.00 62 1017.4
20260508020010 70 147 0.0 4.0 0.00 0.00 0.00 62 1011.7
20260508014550 71 180 0.0 5.0 0.00 0.00 0.00 61 1017.5
20260508014510 71 180 0.0 5.0 0.00 0.00 0.00 61 1011.6
20260508013056 72 177 1.0 5.0 0.00 0.00 0.00 59 1017.3
20260508013009 72 177 1.0 5.0 0.00 0.00 0.00 60 1011.4
20260508011551 73 0 0.0 6.0 0.00 0.00 0.00 58 1017.3
20260508011511 73 155 0.0 5.0 0.00 0.00 0.00 58 1011.3
20260508010050 73 0 2.0 8.0 0.00 0.00 0.00 57 1017.3
20260508010009 73 146 2.0 7.0 0.00 0.00 0.00 57 1011.3
20260508004547 74 175 1.0 6.0 0.00 0.00 0.00 55 1017.3
20260508004508 74 142 2.0 6.0 0.00 0.00 0.00 55 1011.3
20260508003051 75 134 1.0 8.0 0.00 0.00 0.00 54 1017.1
20260508003007 75 134 2.0 7.0 0.00 0.00 0.00 54 1011.3
20260508001550 76 146 2.0 9.0 0.00 0.00 0.00 52 1017.1
20260508001508 76 146 2.0 8.0 0.00 0.00 0.00 52 1011.2
20260508000053 77 133 2.0 9.0 0.00 0.00 0.00 51 1017.1
20260508000008 77 133 2.0 8.0 0.00 0.00 0.00 51 1011.2
20260507234552 78 0 1.0 8.0 0.00 0.00 0.00 50 1017.0
20260507234515 78 221 1.0 8.0 0.00 0.00 0.00 50 1011.1
20260507233052 79 0 2.0 6.0 0.00 0.00 0.00 49 1016.9
20260507233004 79 208 1.0 6.0 0.00 0.00 0.00 49 1010.9
20260507231554 81 0 2.0 9.0 0.00 0.00 0.00 47 1016.7
20260507231503 81 230 3.0 8.0 0.00 0.00 0.00 47 1010.8
20260507230058 81 207 1.0 7.0 0.00 0.00 0.00 47 1016.8
20260507230002 81 207 2.0 7.0 0.00 0.00 0.00 47 1010.9